Regional Weather Roundup
Issued by NWS

Home | Current Version | Previous Version | Graphics & Text | Print | Product List | Glossary On
Versions: 1 2 3 4 5 6 7 8 9 10 11 12 13 14 15 16 17 18 19 20 21 22 23 24 25 26 27 28 29 30 31 32 33 34 35 36 37 38 39 40 41 42 43 44 45 46 47 48 49 50
000
ASUS43 KLMK 280610
RWRKY
KENTUCKY REGIONAL WEATHER ROUNDUP
NATIONAL WEATHER SERVICE LOUISVILLE KY
200 AM EDT TUE APR 28 2015

NOTE "FAIR" INDICATES FEW OR NO CLOUDS BELOW 12,000 FEET
WITH NO SIGNIFICANT WEATHER AND/OR OBSTRUCTIONS TO VISIBILITY.

KYZ001>023-026-027-061>063-070>075-280700-
WESTERN AND SOUTH CENTRAL KENTUCKY

CITY           SKY/WX    TMP DP  RH WIND       PRES   REMARKS
PADUCAH        CLEAR     49  40  71 NE7       30.04R
HENDERSON      CLEAR     48  39  71 NE7       30.05F
OWENSBORO      CLEAR     50  39  65 NE5       30.05F
HOPKINSVILLE   CLEAR     48  42  77 NE8       30.02R
BOWLING GREEN  CLEAR     51  39  63 N5        30.03R
GLASGOW        CLEAR     49  38  66 NE3       30.01S
$$

KYZ024-025-028>034-038-045-046-053-280700-
NORTH CENTRAL KENTUCKY

CITY           SKY/WX    TMP DP  RH WIND       PRES   REMARKS
LOUISVILLE/SDF CLEAR     49  38  65 NE6       30.06R
LOUISVILLE/LOU CLEAR     48  38  68 NE3       30.07R
FORT KNOX      CLEAR     47  38  71 N6        30.03R
$$

KYZ035>037-039>044-047>052-055>060-089>105-280700-
NORTHEAST KENTUCKY

CITY           SKY/WX    TMP DP  RH WIND       PRES   REMARKS
LEXINGTON      CLEAR     43  37  79 NE8       30.05R
COVINGTON      CLEAR     47  36  65 E6        30.07R
FRANKFORT      CLEAR     47  36  65 NE8       30.04S
$$

KYZ054-064>069-076>088-106>120-280700-
SOUTHEAST KENTUCKY

CITY           SKY/WX    TMP DP  RH WIND       PRES   REMARKS
JACKSON        MOCLDY    46  35  65 NE5       30.02S
LONDON         CLEAR     48  34  58 NE7       30.00S
SOMERSET       CLEAR     46  36  66 CALM      30.02S
MIDDLESBORO    CLEAR     40  38  95 CALM      30.02R
MONTICELLO     CLEAR     47  40  76 NE6       30.04R
$$




USA.gov is the U.S. government's official web portal to all federal, state and local government web resources and services.